Weather History for Ann Arbor, MI

Change the Weather History Date:

Tuesday, November 12, 2013

  Actual Average Record
Temperature  
Mean Temperature 26 °F -  
Max Temperature 33 °F 48 °F 66 °F (2005)
Min Temperature 16 °F 30 °F 16 °F (2013)
Degree Days  
Heating Degree Days 39    
Moisture  
Dew Point 17 °F    
Average Humidity 65    
Maximum Humidity 88    
Minimum Humidity 46    
Precipitation  
Precipitation 0.00 in - - ()
Sea Level Pressure  
Sea Level Pressure 30.49 in    
Wind  
Wind Speed 12 mph (NW)    
Max Wind Speed 17 mph    
Max Gust Speed 24 mph    
Visibility 10 miles    
Events      
Averages and records for this station are not official NWS values.
T = Trace of Precipitation, MM = Missing Value Source: NWS Daily Summary

Daily Weather History Graph

Daily Weather History Graph

Search for Another Location

Airport:

Trip Planner

Search our weather history database for the weather conditions in past years. The results will help you decide how hot, cold, wet, or windy it might be!

Date:

Astronomy

Nov. 12, 2013 Rise Set
Actual Time 7:21 AM EST 5:15 PM EST
Civil Twilight 6:52 AM EST 5:45 PM EST
Nautical Twilight 6:18 AM EST 6:19 PM EST
Astronomical Twilight 5:45 AM EST 6:52 PM EST
Moon 2:34 PM EST (11/12) 2:05 AM EST (11/12)
Length of Visible Light 10h 53m
Length of Day
9h 53m
Waxing Gibbous, 76% of the Moon is Illuminated
Nov 12
Waxing Gibbous
Nov 17
Full
Nov 25
Last Quarter
Dec 2
New
Dec 9
First Quarter

Hourly Weather History & Observations

Time (EST) Temp. Windchill Dew Point Humidity Pressure Visibility Wind Dir Wind Speed Gust Speed Precip Events Conditions
12:03 AM 28.4 °F 16.6 °F 19.4 °F 69% 30.30 in 10.0 mi NNW 16.1 mph 19.6 mph N/A   Overcast
12:53 AM 27.0 °F 17.3 °F 19.9 °F 75% 30.34 in 10.0 mi NNW 10.4 mph - N/A   Scattered Clouds
1:53 AM 27.0 °F 15.2 °F 18.0 °F 69% 30.36 in 10.0 mi NNW 15.0 mph 23.0 mph N/A   Partly Cloudy
2:53 AM 25.0 °F 13.1 °F 14.0 °F 63% 30.39 in 10.0 mi North 13.8 mph 21.9 mph N/A   Clear
3:53 AM 24.1 °F 13.1 °F 16.0 °F 71% 30.40 in 10.0 mi NNW 11.5 mph - N/A   Clear
4:53 AM 23.0 °F 13.1 °F 17.1 °F 78% 30.43 in 10.0 mi NNW 9.2 mph - N/A   Clear
5:53 AM 24.1 °F 13.7 °F 17.1 °F 75% 30.45 in 10.0 mi North 10.4 mph - N/A   Clear
6:53 AM 24.1 °F 15.2 °F 17.1 °F 75% 30.48 in 10.0 mi North 8.1 mph - N/A   Clear
7:53 AM 24.1 °F 14.4 °F 18.0 °F 77% 30.52 in 10.0 mi NNW 9.2 mph - N/A   Clear
8:53 AM 26.1 °F 15.0 °F 19.0 °F 75% 30.54 in 10.0 mi NNW 12.7 mph - N/A   Clear
9:53 AM 28.0 °F 17.5 °F 19.9 °F 72% 30.53 in 10.0 mi NNW 12.7 mph 19.6 mph N/A   Clear
10:53 AM 30.0 °F 20.5 °F 19.9 °F 66% 30.55 in 10.0 mi North 11.5 mph 23.0 mph N/A   Clear
11:53 AM 32.0 °F 22.5 °F 19.0 °F 59% 30.55 in 10.0 mi North 12.7 mph 21.9 mph N/A   Partly Cloudy
12:53 PM 32.0 °F 21.2 °F 18.0 °F 56% 30.54 in 10.0 mi NNW 16.1 mph 20.7 mph N/A   Mostly Cloudy
1:53 PM 33.1 °F 23.4 °F 18.0 °F 54% 30.53 in 10.0 mi NW 13.8 mph 21.9 mph N/A   Overcast
2:53 PM 33.1 °F 22.2 °F 14.0 °F 46% 30.53 in 10.0 mi NW 17.3 mph 24.2 mph N/A   Scattered Clouds
3:53 PM 30.9 °F 21.2 °F 15.1 °F 52% 30.54 in 10.0 mi NW 12.7 mph - N/A   Clear
4:53 PM 32.0 °F 24.2 °F 15.1 °F 50% 30.53 in 10.0 mi NW 9.2 mph 23.0 mph N/A   Mostly Cloudy
5:53 PM 30.0 °F 21.7 °F 15.1 °F 54% 30.52 in 10.0 mi WNW 9.2 mph - N/A   Scattered Clouds
6:53 PM 30.0 °F 21.1 °F 15.1 °F 54% 30.53 in 10.0 mi WNW 10.4 mph - N/A   Mostly Cloudy
7:53 PM 30.0 °F 21.1 °F 15.1 °F 54% 30.55 in 10.0 mi WNW 10.4 mph - N/A   Overcast
8:53 PM 27.0 °F 18.0 °F 14.0 °F 58% 30.55 in 10.0 mi WNW 9.2 mph - N/A   Scattered Clouds
9:53 PM 24.1 °F 18.2 °F 14.0 °F 65% 30.56 in 10.0 mi WNW 4.6 mph - N/A   Clear
10:53 PM 19.0 °F 12.3 °F 14.0 °F 81% 30.56 in 10.0 mi WSW 4.6 mph - N/A   Clear
11:53 PM 16.0 °F 10.4 °F 12.9 °F 88% 30.56 in 10.0 mi WSW 3.5 mph - N/A   Clear